FW3849 Weather Reports


time (UTC)temp
F
wind
direction
speed
knots
gust
knots
rain 1hr
in
rain 24hr
in
rain mn
in
humidity
%
barometer
mb
20260901113047 79 185 4.3 9.6 0.00 0.00 0.00 51 1013.2
20260901112546 79 181 4.3 8.7 0.00 0.00 0.00 51 1013.3
20260901112044 79 185 4.3 9.6 0.00 0.00 0.00 51 1013.3
20260901111549 79 197 3.5 9.6 0.00 0.00 0.00 51 1013.3
20260901111043 79 169 4.3 10.4 0.00 0.00 0.00 50 1013.3
20260901110542 79 168 5.2 10.4 0.00 0.00 0.00 50 1013.3
20260901110142 80 183 5.2 9.6 0.00 0.00 0.00 50 1013.2
20260901105043 80 187 4.3 10.4 0.00 0.00 0.00 49 1013.1
20260901104543 80 171 6.1 10.4 0.00 0.00 0.00 49 1013.1
20260901104046 80 185 4.3 10.4 0.00 0.00 0.00 49 1013.1
20260901103541 80 173 5.2 10.4 0.00 0.00 0.00 49 1013.1
20260901103044 80 190 4.3 8.7 0.00 0.00 0.00 49 1013.0
20260901102541 80 193 5.2 8.7 0.00 0.00 0.00 49 1013.0
20260901102040 80 161 5.2 8.7 0.00 0.00 0.00 48 1013.0
20260901101540 80 189 3.5 8.7 0.00 0.00 0.00 48 1013.0
20260901101041 81 189 4.3 9.6 0.00 0.00 0.00 48 1012.8
20260901100541 81 173 4.3 13.9 0.00 0.00 0.00 46 1012.8
20260901100139 81 173 4.3 13.9 0.00 0.00 0.00 46 1012.7
20260901095535 81 182 3.5 13.9 0.00 0.00 0.00 46 1012.6
20260901095035 81 166 5.2 13.9 0.00 0.00 0.00 46 1012.6
20260901094535 81 169 5.2 12.2 0.00 0.00 0.00 46 1012.6
20260901094135 81 178 5.2 13.0 0.00 0.00 0.00 45 1012.6
20260901093533 81 156 5.2 13.0 0.00 0.00 0.00 45 1012.6
20260901093033 81 185 3.5 8.7 0.00 0.00 0.00 44 1012.6
20260901092533 82 194 4.3 8.7 0.00 0.00 0.00 44 1012.7
20260901092032 82 197 4.3 9.6 0.00 0.00 0.00 43 1012.6
20260901091533 82 202 7.0 9.6 0.00 0.00 0.00 43 1012.7
20260901091031 82 146 5.2 9.6 0.00 0.00 0.00 42 1012.7
20260901090530 82 200 3.5 8.7 0.00 0.00 0.00 41 1012.7
20260901090130 82 171 3.5 8.7 0.00 0.00 0.00 40 1012.7
20260901085529 82 184 3.5 9.6 0.00 0.00 0.00 40 1012.7
20260901085029 82 168 5.2 11.3 0.00 0.00 0.00 41 1012.7
20260901084528 82 152 5.2 13.0 0.00 0.00 0.00 40 1012.7
20260901084028 82 180 7.0 13.0 0.00 0.00 0.00 40 1012.7
20260901083531 83 200 4.3 10.4 0.00 0.00 0.00 40 1012.6
20260901083026 83 190 4.3 10.4 0.00 0.00 0.00 39 1012.7
20260901082526 83 181 5.2 10.4 0.00 0.00 0.00 39 1012.7
20260901082027 83 187 4.3 10.4 0.00 0.00 0.00 38 1012.7
20260901081525 83 175 6.1 13.0 0.00 0.00 0.00 38 1012.6
20260901081025 83 162 7.0 13.0 0.00 0.00 0.00 38 1012.6
20260901080525 83 192 4.3 9.6 0.00 0.00 0.00 38 1012.6
20260901080126 83 189 3.5 8.7 0.00 0.00 0.00 38 1012.6
20260901075527 83 181 4.3 8.7 0.00 0.00 0.00 38 1012.7
20260901075028 83 193 4.3 10.4 0.00 0.00 0.00 37 1012.6
20260901074524 83 196 4.3 7.8 0.00 0.00 0.00 37 1012.5
20260901074028 83 190 3.5 7.8 0.00 0.00 0.00 38 1012.5
20260901073524 83 187 3.5 7.8 0.00 0.00 0.00 38 1012.5
20260901073035 83 150 3.5 7.0 0.00 0.00 0.00 38 1012.5
20260901072524 84 198 3.5 7.0 0.00 0.00 0.00 38 1012.6
20260901072024 84 193 3.5 6.1 0.00 0.00 0.00 38 1012.6
20260901071524 84 181 3.5 6.1 0.00 0.00 0.00 38 1012.6
20260901071022 84 179 3.5 7.0 0.00 0.00 0.00 37 1012.5
20260901070521 84 181 3.5 7.8 0.00 0.00 0.00 37 1012.6
20260901070121 84 200 2.6 7.8 0.00 0.00 0.00 37 1012.5
20260901065523 84 164 3.5 7.8 0.00 0.00 0.00 37 1012.5
20260901065021 84 177 3.5 7.8 0.00 0.00 0.00 37 1012.5
20260901064520 85 184 3.5 7.0 0.00 0.00 0.00 37 1012.6
20260901064019 85 180 2.6 7.8 0.00 0.00 0.00 37 1012.6
20260901063518 85 184 4.3 7.8 0.00 0.00 0.00 37 1012.6
20260901063023 85 160 3.5 8.7 0.00 0.00 0.00 37 1012.6
20260901062517 85 199 4.3 8.7 0.00 0.00 0.00 36 1012.6
20260901062017 85 201 5.2 9.6 0.00 0.00 0.00 36 1012.6
20260901061517 85 175 4.3 9.6 0.00 0.00 0.00 36 1012.5
20260901061017 85 195 4.3 9.6 0.00 0.00 0.00 36 1012.5
20260901060517 85 169 2.6 10.4 0.00 0.00 0.00 36 1012.6
20260901060115 85 183 6.1 11.3 0.00 0.00 0.00 36 1012.4
20260901055516 85 157 4.3 11.3 0.00 0.00 0.00 36 1012.4
20260901055020 85 179 4.3 9.6 0.00 0.00 0.00 37 1012.3
20260901054517 85 200 3.5 9.6 0.00 0.00 0.00 37 1012.4
20260901054016 85 164 4.3 9.6 0.00 0.00 0.00 37 1012.3
20260901053516 85 174 2.6 7.8 0.00 0.00 0.00 37 1012.3
20260901053016 85 191 3.5 7.8 0.00 0.00 0.00 37 1012.3
20260901052514 85 177 4.3 7.8 0.00 0.00 0.00 37 1012.2
20260901052015 85 176 3.5 7.0 0.00 0.00 0.00 37 1012.1
20260901051513 85 193 3.5 7.8 0.00 0.00 0.00 36 1012.1
20260901051013 86 154 3.5 7.8 0.00 0.00 0.00 36 1012.1
20260901050512 86 174 2.6 7.0 0.00 0.00 0.00 36 1012.2
20260901050111 86 189 2.6 5.2 0.00 0.00 0.00 36 1012.2
20260901045511 86 192 2.6 5.2 0.00 0.00 0.00 36 1012.2
20260901045010 86 181 2.6 5.2 0.00 0.00 0.00 36 1012.1
20260901044511 86 172 1.7 5.2 0.00 0.00 0.00 36 1012.1
20260901044010 86 177 2.6 4.3 0.00 0.00 0.00 35 1012.2
20260901043510 87 186 2.6 4.3 0.00 0.00 0.00 35 1012.2
20260901043010 87 186 2.6 5.2 0.00 0.00 0.00 35 1012.2
20260901042511 87 189 3.5 5.2 0.00 0.00 0.00 34 1012.1
20260901042009 87 180 2.6 7.0 0.00 0.00 0.00 34 1012.1
20260901041509 87 183 3.5 7.0 0.00 0.00 0.00 34 1012.1
20260901041009 88 189 3.5 7.0 0.00 0.00 0.00 34 1012.0
20260901040509 88 191 3.5 7.8 0.00 0.00 0.00 34 1012.0
20260901040139 88 195 4.3 7.8 0.00 0.00 0.00 33 1011.9
20260901035509 88 190 5.2 8.7 0.00 0.00 0.00 33 1011.8
20260901035007 88 183 2.6 7.8 0.00 0.00 0.00 33 1012.0
20260901034507 88 187 3.5 7.8 0.00 0.00 0.00 32 1011.8
20260901034008 89 194 3.5 9.6 0.00 0.00 0.00 32 1011.8
20260901033510 89 191 4.3 10.4 0.00 0.00 0.00 31 1011.8
20260901033007 89 187 5.2 10.4 0.00 0.00 0.00 31 1011.7
20260901032507 89 205 5.2 9.6 0.00 0.00 0.00 31 1011.7
20260901032007 89 190 5.2 10.4 0.00 0.00 0.00 31 1011.6
20260901031507 89 191 6.1 9.6 0.00 0.00 0.00 31 1011.4
20260901031008 90 189 4.3 11.3 0.00 0.00 0.00 30 1011.4
20260901030506 90 198 6.1 11.3 0.00 0.00 0.00 30 1011.3
20260901030112 90 191 6.1 9.6 0.00 0.00 0.00 30 1011.2
20260901025507 90 191 5.2 9.6 0.00 0.00 0.00 30 1011.1
20260901025007 90 162 6.1 9.6 0.00 0.00 0.00 29 1010.9
20260901024507 90 204 4.3 11.3 0.00 0.00 0.00 29 1010.8
20260901024007 90 202 5.2 10.4 0.00 0.00 0.00 28 1010.7
20260901023508 90 191 4.3 8.7 0.00 0.00 0.00 28 1010.4
20260901023006 90 196 4.3 8.7 0.00 0.00 0.00 28 1010.4
20260901022505 90 200 4.3 8.7 0.00 0.00 0.00 27 1010.2
20260901022006 90 192 4.3 8.7 0.00 0.00 0.00 26 1010.1
20260901021510 90 196 4.3 8.7 0.00 0.00 0.00 26 1009.9
20260901021005 90 191 4.3 7.8 0.00 0.00 0.00 25 1009.8
20260901020505 91 185 4.3 7.8 0.00 0.00 0.00 24 1009.8
20260901020006 91 196 5.2 10.4 0.00 0.00 0.00 24 1009.7
20260901015505 91 192 4.3 10.4 0.00 0.00 0.00 23 1009.6
20260901015007 91 193 5.2 8.7 0.00 0.00 0.00 23 1009.6
20260901014504 91 195 5.2 8.7 0.00 0.00 0.00 23 1009.5
20260901014005 92 160 3.5 7.8 0.00 0.00 0.00 23 1009.5
20260901013505 92 193 1.7 8.7 0.00 0.00 0.00 22 1009.4
20260901013005 92 196 3.5 8.7 0.00 0.00 0.00 22 1009.4
20260901012508 92 195 4.3 9.6 0.00 0.00 0.00 22 1009.4
20260901012009 93 196 5.2 9.6 0.00 0.00 0.00 22 1009.4
20260901011504 93 201 5.2 10.4 0.00 0.00 0.00 21 1009.3
20260901011004 93 195 5.2 10.4 0.00 0.00 0.00 22 1009.4
20260901010504 93 196 5.2 9.6 0.00 0.00 0.00 21 1009.4
20260901010116 94 196 7.0 10.4 0.00 0.00 0.00 21 1009.3
20260901005507 94 196 6.1 10.4 0.00 0.00 0.00 21 1009.3
20260901005006 94 203 5.2 10.4 0.00 0.00 0.00 21 1009.2
20260901004504 95 186 5.2 11.3 0.00 0.00 0.00 21 1009.2
20260901004003 95 195 7.0 13.0 0.00 0.00 0.00 20 1009.2
20260901003503 95 169 7.8 12.2 0.00 0.00 0.00 20 1009.3
20260901003008 95 183 6.1 10.4 0.00 0.00 0.00 20 1009.2
20260901002503 95 186 5.2 12.2 0.00 0.00 0.00 20 1009.3
20260901002005 96 244 5.2 13.9 0.00 0.00 0.00 20 1009.2
20260901001502 96 203 8.7 13.0 0.00 0.00 0.00 20 1009.2
20260901001002 96 198 6.1 13.0 0.00 0.00 0.00 19 1009.2
20260901000505 96 201 7.8 11.3 0.00 0.00 0.00 19 1009.2
20260901000104 96 191 7.0 12.2 0.00 0.00 0.00 19 1009.2
20260831235502 96 202 7.0 12.2 0.00 0.00 0.00 19 1009.2
20260831235002 96 142 3.5 10.4 0.00 0.00 0.00 18 1009.2
20260831234502 96 194 6.1 13.9 0.00 0.00 0.00 18 1009.0
20260831234002 96 207 6.1 13.9 0.00 0.00 0.00 18 1009.1
20260831233502 97 166 6.1 13.0 0.00 0.00 0.00 18 1009.0
20260831233002 97 200 5.2 11.3 0.00 0.00 0.00 18 1009.0
20260831232501 97 199 5.2 11.3 0.00 0.00 0.00 19 1009.0
20260831232001 97 195 7.0 14.8 0.00 0.00 0.00 19 1009.1
20260831231600 97 171 6.1 14.8 0.00 0.00 0.00 20 1009.0
20260831231101 97 212 6.1 13.0 0.00 0.00 0.00 21 1008.9
20260831230602 96 162 3.5 11.3 0.00 0.00 0.00 21 1009.0
20260831230112 97 212 9.6 15.6 0.00 0.00 0.00 21 1009.2
20260831225100 97 166 7.8 13.0 0.00 0.00 0.00 21 1009.1
20260831224558 97 189 5.2 11.3 0.00 0.00 0.00 21 1009.2
20260831224058 97 150 6.1 12.2 0.00 0.00 0.00 20 1009.2
20260831223557 97 145 4.3 12.2 0.00 0.00 0.00 21 1009.2
20260831223108 97 157 3.5 9.6 0.00 0.00 0.00 21 1009.2
20260831222557 97 204 5.2 10.4 0.00 0.00 0.00 22 1009.2
20260831222055 96 206 6.1 12.2 0.00 0.00 0.00 22 1009.2
20260831221558 96 158 7.0 12.2 0.00 0.00 0.00 21 1009.3
20260831221054 96 202 4.3 10.4 0.00 0.00 0.00 22 1009.3
20260831220554 96 191 5.2 9.6 0.00 0.00 0.00 22 1009.3
20260831220053 96 182 7.8 12.2 0.00 0.00 0.00 23 1009.3
20260831215054 96 87 3.5 9.6 0.00 0.00 0.00 23 1009.4
20260831214604 96 149 4.3 10.4 0.00 0.00 0.00 23 1009.6
20260831214053 96 181 6.1 10.4 0.00 0.00 0.00 22 1009.8
20260831213552 96 146 4.3 10.4 0.00 0.00 0.00 23 1009.8
20260831213051 96 202 7.8 13.0 0.00 0.00 0.00 23 1009.9
20260831212550 97 200 7.0 13.0 0.00 0.00 0.00 22 1010.0
20260831212049 96 209 6.1 13.0 0.00 0.00 0.00 23 1010.1
20260831211550 96 193 7.8 13.0 0.00 0.00 0.00 23 1010.0
20260831211049 95 244 5.2 10.4 0.00 0.00 0.00 24 1010.0
20260831210550 95 217 4.3 12.2 0.00 0.00 0.00 24 1010.1
20260831210047 95 192 3.5 13.0 0.00 0.00 0.00 24 1010.4
20260831205046 95 192 7.8 13.0 0.00 0.00 0.00 24 1010.4
20260831204545 95 187 5.2 13.9 0.00 0.00 0.00 24 1010.6
20260831204045 96 187 8.7 13.9 0.00 0.00 0.00 24 1010.6
20260831203545 96 193 7.0 13.0 0.00 0.00 0.00 24 1010.6
20260831203046 96 158 7.8 12.2 0.00 0.00 0.00 24 1010.8
20260831202544 95 159 7.0 13.0 0.00 0.00 0.00 25 1010.9
20260831202042 96 200 8.7 14.8 0.00 0.00 0.00 26 1011.0
20260831201542 95 195 6.1 14.8 0.00 0.00 0.00 25 1011.1
20260831201041 95 186 6.1 13.0 0.00 0.00 0.00 25 1011.1
20260831200540 95 190 6.1 11.3 0.00 0.00 0.00 25 1011.2
20260831200043 95 177 7.0 13.0 0.00 0.00 0.00 26 1011.3
20260831195041 95 193 5.2 13.9 0.00 0.00 0.00 26 1011.3
20260831194557 95 222 7.8 13.9 0.00 0.00 0.00 25 1011.4
20260831194039 95 216 6.1 13.0 0.00 0.00 0.00 25 1011.4
20260831193539 95 189 8.7 13.0 0.00 0.00 0.00 25 1011.5
20260831193040 95 174 8.7 12.2 0.00 0.00 0.00 26 1011.4
20260831192539 94 166 6.1 19.1 0.00 0.00 0.00 27 1011.4
20260831192038 94 210 9.6 19.1 0.00 0.00 0.00 27 1011.4
20260831191538 95 205 8.7 13.0 0.00 0.00 0.00 26 1011.5
20260831191043 95 143 6.1 13.9 0.00 0.00 0.00 27 1011.7
20260831190536 94 196 7.8 13.9 0.00 0.00 0.00 28 1011.7
20260831190035 94 184 10.4 15.6 0.00 0.00 0.00 29 1011.7
20260831185033 93 200 8.7 14.8 0.00 0.00 0.00 29 1011.7
20260831184532 93 219 7.8 16.5 0.00 0.00 0.00 27 1011.8
20260831184032 93 205 9.6 15.6 0.00 0.00 0.00 29 1011.8
20260831183531 93 182 9.6 15.6 0.00 0.00 0.00 29 1011.9
20260831183034 93 122 6.1 15.6 0.00 0.00 0.00 30 1012.0
20260831182530 93 156 10.4 15.6 0.00 0.00 0.00 30 1012.1
20260831182028 92 200 9.6 15.6 0.00 0.00 0.00 32 1012.2
20260831181527 92 166 9.6 14.8 0.00 0.00 0.00 32 1012.2
20260831181026 92 187 8.7 13.9 0.00 0.00 0.00 34 1012.2
20260831180525 91 214 5.2 16.5 0.00 0.00 0.00 36 1012.4
20260831180025 91 189 6.1 15.6 0.00 0.00 0.00 35 1012.4
20260831175023 91 243 8.7 16.5 0.00 0.00 0.00 35 1012.5
20260831174522 91 206 9.6 16.5 0.00 0.00 0.00 35 1012.5
20260831174022 90 204 10.4 15.6 0.00 0.00 0.00 37 1012.7
20260831173525 90 165 7.0 15.6 0.00 0.00 0.00 38 1012.7
20260831173021 90 205 7.8 15.6 0.00 0.00 0.00 38 1012.7
20260831172523 90 189 7.0 15.6 0.00 0.00 0.00 39 1012.7
20260831172022 89 177 9.6 15.6 0.00 0.00 0.00 39 1012.8
20260831171519 89 198 7.8 13.0 0.00 0.00 0.00 40 1012.8
20260831171017 89 206 7.8 14.8 0.00 0.00 0.00 41 1012.8
20260831170517 89 196 9.6 14.8 0.00 0.00 0.00 41 1012.9
20260831170033 88 162 7.8 17.4 0.00 0.00 0.00 43 1012.9
20260831165117 88 148 7.0 12.2 0.00 0.00 0.00 43 1013.1
20260831164521 88 189 8.7 13.0 0.00 0.00 0.00 43 1013.1
20260831164019 87 205 7.0 13.9 0.00 0.00 0.00 44 1013.2
20260831163514 87 200 7.8 13.9 0.00 0.00 0.00 44 1013.1
20260831163016 86 187 7.8 13.0 0.00 0.00 0.00 45 1013.1
20260831162513 86 181 5.2 12.2 0.00 0.00 0.00 46 1013.0
20260831162013 86 156 7.8 13.0 0.00 0.00 0.00 46 1013.1
20260831161510 85 205 7.0 13.0 0.00 0.00 0.00 47 1013.2
20260831161010 85 206 7.8 12.2 0.00 0.00 0.00 47 1013.1
20260831160510 85 203 6.1 13.0 0.00 0.00 0.00 48 1013.1
20260831160012 84 174 6.1 12.2 0.00 0.00 0.00 49 1013.2
20260831155008 84 149 6.1 13.9 0.00 0.00 0.00 49 1013.1
20260831154518 84 212 8.7 13.9 0.00 0.00 0.00 50 1013.1
20260831154005 83 173 5.2 12.2 0.00 0.00 0.00 50 1013.1
20260831153504 83 196 7.0 12.2 0.00 0.00 0.00 51 1013.3
20260831153003 82 196 7.0 12.2 0.00 0.00 0.00 51 1013.3
20260831152503 82 190 7.8 12.2 0.00 0.00 0.00 51 1013.2
20260831152005 82 189 7.0 12.2 0.00 0.00 0.00 52 1013.3
20260831151504 82 190 7.8 12.2 0.00 0.00 0.00 52 1013.3
20260831151003 82 177 6.1 12.2 0.00 0.00 0.00 53 1013.3
20260831150503 82 191 7.8 12.2 0.00 0.00 0.00 53 1013.3
20260831150003 81 196 8.7 13.0 0.00 0.00 0.00 54 1013.2
20260831145003 81 199 8.7 12.2 0.00 0.00 0.00 54 1013.3
20260831144604 81 151 6.1 10.4 0.00 0.00 0.00 54 1013.1
20260831144004 80 176 6.1 11.3 0.00 0.00 0.00 55 1013.3
20260831143502 80 200 5.2 12.2 0.00 0.00 0.00 56 1013.3
20260831143002 80 213 7.0 12.2 0.00 0.00 0.00 56 1013.4
20260831142502 80 211 6.1 13.9 0.00 0.00 0.00 56 1013.3
20260831142000 79 203 6.1 13.9 0.00 0.00 0.00 57 1013.2
20260831141501 79 166 6.1 13.0 0.00 0.00 0.00 57 1013.1
20260831141000 79 189 7.8 13.0 0.00 0.00 0.00 57 1013.2
20260831140600 79 146 6.1 12.2 0.00 0.00 0.00 58 1013.1
20260831140100 79 193 5.2 12.2 0.00 0.00 0.00 58 1013.1
20260831135000 78 180 8.7 13.0 0.00 0.00 0.00 58 1013.0
20260831134501 78 201 7.8 12.2 0.00 0.00 0.00 59 1013.1
20260831134100 78 189 6.1 10.4 0.00 0.00 0.00 59 1013.2
20260831133559 78 193 6.1 12.2 0.00 0.00 0.00 59 1013.0
20260831133159 78 201 7.0 12.2 0.00 0.00 0.00 59 1013.0
20260831132558 78 163 7.0 12.2 0.00 0.00 0.00 59 1012.9
20260831132058 78 191 6.1 13.0 0.00 0.00 0.00 59 1012.9
20260831131559 78 161 6.1 13.0 0.00 0.00 0.00 59 1012.9
20260831131057 77 181 5.2 12.2 0.00 0.00 0.00 60 1012.7
20260831130555 77 193 7.0 12.2 0.00 0.00 0.00 60 1012.7
20260831130100 77 195 5.2 11.3 0.00 0.00 0.00 60 1012.7
20260831125051 77 154 5.2 8.7 0.00 0.00 0.00 60 1012.7
20260831124558 77 180 4.3 8.7 0.00 0.00 0.00 60 1012.6
20260831124049 77 168 4.3 7.8 0.00 0.00 0.00 60 1012.6
20260831123547 77 180 3.5 7.8 0.00 0.00 0.00 60 1012.5
20260831123047 77 160 3.5 7.0 0.00 0.00 0.00 59 1012.5
20260831122550 77 122 2.6 5.2 0.00 0.00 0.00 59 1012.5
20260831122046 77 182 0.9 4.3 0.00 0.00 0.00 59 1012.4
20260831121546 77 182 1.7 7.0 0.00 0.00 0.00 59 1012.4
20260831121045 78 184 2.6 7.8 0.00 0.00 0.00 59 1012.2
20260831120544 78 175 3.5 7.8 0.00 0.00 0.00 59 1012.2
20260831120044 78 196 2.6 7.8 0.00 0.00 0.00 58 1012.1
20260831115043 78 163 3.5 7.0 0.00 0.00 0.00 58 1012.2
20260831114542 78 181 3.5 9.6 0.00 0.00 0.00 58 1012.1
20260831114042 78 190 3.5 9.6 0.00 0.00 0.00 57 1012.2
20260831113539 78 177 3.5 7.8 0.00 0.00 0.00 57 1012.1